Location: ??????
(30.5519°N, 47.7720°E)
Time: 17:58:29
(UTC+00:00)

Okean O Rocket - Pass Details

Date: 24 January 2021
Orbit: 622 x 645 km, 98.2° (Epoch: 02 March)

Event Time Altitude Azimuth Distance (km) Brightness Sun altitude
Rises 14:40:06 0° 170° (S) 2,939 5.2 -5.2°
Reaches altitude 10° 14:42:18 10° 171° (S) 2,031 4.3 -5.7°
Maximum altitude 14:46:44 78° 258° (WSW) 660 1.9 -6.6°
Drops below altitude 10° 14:51:11 10° 345° (NNW) 2,034 4.2 -7.5°
Sets 14:53:23 0° 346° (NNW) 2,943 5.0 -8.0°
